Theta_e
298 300 300 300 299 300 298 298 294 296 299 302 306 305 308 310 311 311 311 310 311 310 311 312 311 311 311 310 310 311 310 310 311 312 313 314 314 314 313 312 311 311 311 310
296 299 299 295 300 301 301 300 300 299 300 308 307 310 309 309 309 308 308 309 309 309 310 309 309 309 309 309 310 310 309 309 310 311 312 311 310 309 309 309 309 308 306 306
293 298 297 293 298 299 300 300 299 296 301 307 306 306 307 307 307 307 308 307 308 308 308 308 308 309 307 308 308 308 308 309 309 310 307 306 306 305 304 305 306 305 305 304
293 296 287 297 302 300 299 300 301 302 303 305 305 307 307 308 306 306 307 307 307 307 307 307 307 307 308 307 306 307 307 307 307 306 305 304 303 303 303 303 302 302 303 303
292 291 294 296 299 297 298 298 302 301 302 304 306 305 305 306 306 305 305 305 305 306 305 306 306 307 305 304 305 304 304 304 304 304 302 302 301 302 303 302 303 303 304 303
295 289 285 297 303 307 304 292 304 302 301 301 304 296 298 305 305 304 305 304 304 304 304 305 305 304 302 301 300 300 302 300 300 303 303 302 302 302 303 304 304 303 303 304
293 292 295 302 303 305 293 292 302 303 302 302 300 300 303 304 303 304 303 302 302 302 301 302 300 299 297 297 297 298 298 300 302 303 304 304 303 302 305 304 301 302 303 304
295 290 287 304 302 296 300 304 303 302 303 301 301 301 301 301 301 301 299 299 299 298 297 297 297 296 295 294 294 296 299 300 301 303 302 301 303 305 305 306 304 301 303 304
295 295 304 306 304 305 305 302 302 302 301 300 299 298 299 298 298 297 296 295 295 294 293 294 294 293 289 291 296 297 297 299 301 301 301 303 305 303 301 305 305 303 300 301
298 298 300 302 304 304 304 302 301 300 300 299 297 297 296 296 294 293 292 291 292 291 290 290 290 290 291 293 294 296 296 298 298 298 300 304 304 303 300 300 301 301 302 302
295 298 300 302 303 302 301 301 299 299 299 298 297 296 295 293 291 290 290 290 290 288 288 287 289 289 292 293 294 294 295 295 296 299 301 302 302 301 301 303 301 300 301 302
296 301 301 300 302 302 299 298 298 298 297 298 297 295 294 291 291 289 288 288 288 288 287 287 287 288 289 290 290 291 291 292 293 296 300 301 301 300 299 296 296 295 293 294
302 305 303 302 301 301 299 299 299 298 298 297 297 296 294 290 290 288 288 287 286 286 286 286 287 287 288 288 288 288 288 289 291 295 299 300 301 301 301 303 300 297 296 294
306 304 300 301 299 300 299 298 298 299 298 297 296 295 292 289 289 287 286 287 287 286 286 286 285 287 288 289 288 288 289 289 291 294 299 299 301 302 304 304 305 304 302 298
303 303 302 302 301 299 299 298 296 296 296 295 295 292 289 287 286 287 288 288 288 287 287 286 285 287 289 290 289 287 287 288 289 292 296 297 302 304 302 304 303 303 305 300
301 301 301 300 298 297 297 298 296 296 295 294 293 290 288 289 288 288 288 288 287 286 287 286 286 289 290 290 291 288 286 288 287 289 291 296 299 301 302 302 302 304 305 302
299 298 299 297 296 296 297 297 297 296 295 293 291 289 287 288 287 287 287 288 288 288 287 287 286 289 289 289 289 289 287 287 286 286 286 289 292 296 299 301 301 302 302 302
303 301 301 299 297 296 296 297 297 296 294 292 291 288 286 285 284 286 287 287 287 287 287 287 288 288 288 288 288 290 288 286 287 287 285 285 286 289 292 295 298 300 301 304
302 300 299 298 299 298 298 297 297 296 294 292 287 285 285 285 286 287 289 285 283 283 285 286 287 287 287 287 288 290 290 289 289 288 286 285 284 286 286 287 289 293 296 298
298 298 298 298 299 299 297 298 297 294 292 290 288 286 284 285 287 287 288 285 284 284 286 286 287 286 287 287 287 288 288 288 288 288 289 285 284 285 284 283 284 286 288 290
297 297 297 298 298 297 298 298 297 294 292 289 285 285 284 285 288 286 285 285 285 285 286 286 285 285 287 286 287 286 287 287 286 287 286 287 286 285 285 283 283 283 284 285
298 297 297 298 297 296 297 297 296 294 292 290 288 286 286 285 287 288 285 283 286 284 286 285 285 284 285 285 287 286 285 285 285 286 286 286 287 287 286 284 283 283 283 283
298 298 298 297 297 296 297 296 295 293 290 289 289 288 288 286 286 284 283 285 287 286 288 286 284 283 283 288 286 286 286 284 284 285 285 286 286 286 287 286 285 284 284 283
298 298 298 298 297 296 294 294 294 293 292 291 291 291 289 288 287 287 287 287 285 286 288 286 285 284 285 289 287 285 285 285 285 285 284 284 285 285 286 286 286 286 286 285
298 298 297 296 295 295 295 295 294 294 293 292 291 291 291 291 288 287 288 289 286 288 290 284 284 285 288 288 287 287 286 285 284 285 285 284 284 284 284 285 286 286 286 286
297 296 297 298 296 295 294 293 291 292 293 291 290 291 291 291 291 290 289 288 290 288 290 290 288 288 288 288 287 286 285 285 284 284 284 285 284 284 284 284 284 285 286 286
296 294 296 295 295 293 292 292 292 290 291 292 290 291 291 291 290 290 287 288 289 290 290 290 288 287 288 288 286 285 285 284 284 284 284 285 285 284 284 284 284 284 285 285
Wind_Speed
10 4 4 11 15 11 13 12 10 5 15 17 14 6 6 10 5 7 6 4 7 7 7 8 8 8 9 9 10 11 12 12 12 13 13 13 14 14 14 14 13 15 15 15
8 9 10 10 12 17 15 13 14 9 10 12 2 12 5 5 2 1 4 6 6 7 8 9 10 10 11 11 12 12 12 13 13 13 13 13 13 14 14 13 14 14 15 16
10 11 8 5 9 10 6 4 4 7 4 14 11 3 4 1 3 4 8 5 7 8 8 9 10 10 11 11 12 12 12 12 12 12 12 13 13 15 15 15 14 14 14 16
8 11 10 9 3 4 10 6 3 8 5 4 6 7 9 12 10 7 7 8 9 8 9 9 10 11 11 11 12 12 12 11 11 11 12 12 13 13 12 11 12 12 13 14
8 9 13 8 6 6 12 10 7 9 8 7 7 11 10 8 6 6 8 9 9 10 11 11 11 11 11 12 12 11 11 11 12 12 12 13 12 12 12 12 13 14 13 16
9 8 5 13 8 10 14 9 10 9 8 7 6 8 4 6 7 8 8 9 10 12 11 11 10 12 12 12 12 11 10 11 13 13 13 13 13 14 14 15 15 12 15 17
9 4 8 9 7 3 11 5 9 11 9 7 8 6 6 7 8 9 10 12 12 11 11 11 11 10 11 10 10 10 11 13 13 13 13 13 15 13 15 12 12 11 15 14
6 4 5 8 8 2 9 9 10 11 9 7 7 8 9 10 11 11 12 13 13 11 11 11 10 9 10 10 10 11 11 12 13 13 11 12 13 11 13 15 10 11 15 14
2 6 12 16 16 14 10 11 10 10 9 9 9 11 11 11 11 11 12 11 11 11 11 10 11 9 9 10 11 11 12 13 12 13 12 12 10 9 10 14 13 10 9 11
10 12 14 16 15 14 14 12 11 11 11 11 11 13 12 11 11 10 10 10 11 12 11 11 10 9 10 11 11 11 12 12 11 12 13 11 8 9 8 10 11 10 10 10
14 13 15 14 14 13 13 12 12 11 11 11 11 12 13 11 11 10 10 11 11 10 8 8 10 10 9 10 11 11 11 11 11 11 11 10 8 9 9 10 9 10 10 9
7 15 9 14 13 13 13 12 11 11 11 10 11 12 12 11 11 11 11 11 9 7 8 9 10 10 11 12 12 12 11 9 9 10 10 9 8 10 11 11 17 14 10 9
13 15 17 17 13 13 13 12 11 12 11 10 11 12 11 10 11 10 9 9 8 8 8 10 11 12 11 10 11 11 11 11 9 10 9 8 9 9 10 11 12 7 9 12
19 18 17 16 14 14 13 12 10 10 10 10 11 11 11 9 9 6 7 7 7 9 10 10 11 11 13 11 10 10 10 12 9 9 10 8 8 10 9 9 10 9 10 12
14 14 16 17 15 13 11 9 10 10 10 10 11 11 9 7 8 9 10 9 9 9 10 10 12 12 12 13 11 11 9 8 10 9 9 10 10 6 7 9 9 8 7 7
15 16 17 15 13 11 10 10 10 10 10 11 10 10 8 7 8 9 10 11 11 11 13 14 13 14 14 14 12 9 9 11 12 9 10 10 10 10 10 6 8 10 5 5
15 15 14 13 11 11 11 10 10 9 10 10 10 9 6 7 8 9 10 11 10 11 13 14 15 14 15 14 15 9 8 9 10 8 9 10 11 11 12 11 9 9 7 8
7 10 11 12 12 11 10 9 10 10 11 10 10 9 6 6 8 8 8 10 11 12 14 15 15 14 15 16 15 9 8 9 10 9 8 10 10 10 11 12 13 13 12 13
10 11 13 12 11 10 10 9 12 10 10 10 8 6 6 6 6 7 7 11 12 13 14 15 18 16 15 18 17 10 9 9 9 9 10 11 10 10 11 12 12 12 13 13
13 13 13 13 12 12 10 10 12 11 11 10 8 7 7 6 5 9 8 12 11 9 11 14 15 13 14 15 16 11 12 12 12 11 11 11 10 10 10 12 12 12 12 12
12 11 12 13 13 11 10 9 10 9 10 11 7 6 7 7 7 10 11 8 12 13 12 15 13 11 10 11 11 11 12 12 12 11 12 11 9 10 12 11 10 10 11 11
10 10 11 13 11 11 10 9 10 8 9 10 10 6 4 8 8 7 13 10 7 13 9 10 10 14 10 11 9 10 13 13 11 10 11 11 11 10 10 10 9 10 9 9
10 10 10 10 11 10 9 9 10 9 9 8 9 8 6 7 7 7 7 10 7 10 8 10 10 15 15 9 9 10 11 14 13 11 10 11 11 11 11 11 9 9 8 9
10 8 12 10 9 8 8 7 8 7 7 8 8 9 8 6 7 6 5 4 10 10 8 7 8 10 10 10 9 10 10 10 11 11 11 13 11 11 11 12 12 10 9 8
10 9 9 8 7 6 6 6 7 7 7 8 8 8 9 8 7 4 6 6 5 10 8 6 8 5 11 11 11 10 9 10 10 10 10 11 12 11 12 11 11 12 11 10
7 6 6 8 7 4 3 4 6 5 4 6 6 6 5 6 6 7 6 8 8 8 9 9 10 11 10 11 12 12 11 10 11 10 11 10 11 12 12 13 12 12 12 11
7 6 7 6 6 6 6 6 5 6 5 5 6 6 6 6 6 7 9 8 8 9 9 9 10 10 10 10 11 11 11 11 11 11 10 10 10 10 12 12 12 11 11 11
Wind_Direction
128 205 129 272 200 212 232 229 245 306 188 204 200 194 197 127 149 127 124 76 62 41 23 11 11 359 358 352 345 337 331 326 321 316 318 315 310 313 310 306 305 304 300 297
169 151 106 273 204 180 215 201 217 136 128 144 173 200 152 153 130 189 128 58 22 7 2 355 354 346 346 334 335 329 324 313 318 313 313 314 314 313 309 303 300 295 295 296
180 199 194 228 180 192 193 229 241 228 15 132 136 193 164 109 76 19 48 18 354 349 346 352 342 340 325 327 325 319 314 311 307 323 325 318 309 303 298 291 294 294 289 284
151 151 196 68 32 340 171 132 207 85 61 76 103 73 59 48 56 44 0 344 339 343 343 341 330 321 326 324 316 312 313 319 330 315 311 307 305 298 299 297 295 292 291 289
152 172 101 131 130 161 155 110 41 99 109 111 110 113 97 73 39 359 348 334 343 344 338 328 320 327 327 317 316 319 322 321 330 318 307 314 303 302 301 294 289 293 289 289
146 180 156 103 83 49 112 112 121 93 73 38 274 158 76 356 358 351 345 346 344 340 322 321 337 342 324 321 320 318 321 320 297 295 308 306 305 299 297 295 287 292 285 286
128 173 97 100 106 210 216 132 74 85 70 50 50 75 5 356 350 354 352 349 342 334 327 346 334 325 310 312 310 325 305 292 305 306 308 306 296 283 287 288 288 289 290 286
145 134 111 141 143 19 121 112 95 78 54 57 42 30 10 360 356 354 347 343 345 335 337 333 328 335 322 317 312 292 301 304 301 306 315 289 287 312 312 310 284 292 300 292
62 82 77 82 99 90 89 98 81 78 61 43 45 26 14 1 359 356 354 348 345 340 327 331 348 338 312 300 303 319 307 303 312 318 300 297 301 321 313 312 310 306 293 303
105 104 101 99 99 99 94 92 85 75 62 46 39 24 13 10 4 352 353 352 345 339 340 337 332 320 312 321 315 308 310 314 321 314 298 306 332 325 313 306 306 304 300 299
92 120 108 99 99 104 102 96 91 78 66 52 42 37 22 17 7 1 359 352 353 350 334 330 326 324 328 328 325 319 318 320 317 308 321 321 330 318 313 306 290 295 294 290
158 168 117 127 113 113 102 91 75 73 69 60 43 46 32 27 18 9 3 357 350 339 340 338 338 338 350 343 335 327 320 322 321 310 322 310 333 319 311 284 295 298 290 275
112 126 118 121 126 112 104 94 87 77 60 51 49 46 43 27 28 13 5 358 351 358 347 343 354 350 351 347 338 331 321 320 317 304 309 335 326 321 324 335 310 20 335 320
115 119 128 142 120 109 107 106 95 84 73 60 52 47 41 34 24 18 8 356 353 357 1 357 352 354 351 344 340 335 326 332 322 325 315 328 319 322 341 334 345 345 351 336
140 130 128 119 123 126 120 112 94 78 66 59 53 46 31 19 25 14 15 5 7 15 2 6 352 359 351 355 0 355 344 346 337 329 320 314 300 310 325 330 328 327 334 345
121 121 129 132 129 128 114 101 90 77 65 54 47 41 24 24 30 20 18 10 10 17 9 10 3 359 1 358 351 13 351 347 358 348 340 339 339 335 340 343 333 347 335 316
133 138 131 130 130 109 93 84 83 70 61 56 50 46 14 22 33 27 24 15 8 24 14 10 4 1 5 6 346 19 358 353 1 4 2 352 349 341 338 339 346 339 350 351
113 125 130 127 119 111 101 91 88 76 64 55 56 47 24 25 36 19 24 20 11 19 17 10 7 3 9 8 347 16 17 2 5 12 7 6 357 352 350 349 348 344 347 348
129 116 115 117 113 112 97 89 85 79 68 65 55 49 32 18 24 22 21 33 22 12 6 6 5 12 12 7 351 9 3 15 9 13 23 14 6 8 3 357 351 352 348 347
107 112 110 112 107 98 96 90 90 82 68 55 57 52 37 18 12 21 10 60 29 1 356 11 8 12 12 5 359 12 12 12 13 9 15 25 12 7 12 4 357 357 354 350
140 137 121 110 100 94 89 90 94 87 83 70 47 48 49 21 25 44 27 28 20 359 14 17 14 11 10 358 14 14 14 14 15 11 7 3 14 9 18 8 359 1 356 352
136 114 113 107 105 95 88 87 89 81 75 80 64 25 76 45 17 65 66 23 9 351 31 21 8 351 346 355 18 18 18 15 16 9 9 2 359 2 10 13 360 359 354 351
117 112 112 112 102 100 96 86 80 72 68 61 71 67 49 74 43 28 25 16 7 341 21 36 350 336 331 51 26 22 20 17 15 10 6 3 1 359 357 2 359 354 354 355
122 119 96 104 125 118 98 110 110 105 101 88 70 71 72 46 65 36 12 335 341 324 75 35 4 338 346 29 34 25 23 17 10 5 6 5 2 360 358 353 355 356 344 345
103 117 135 136 119 119 135 153 136 124 107 84 67 70 68 83 60 51 17 350 19 348 37 87 19 10 17 28 22 25 23 22 8 1 360 359 1 357 356 352 350 348 343 347
130 93 78 61 85 98 96 73 70 37 74 92 76 67 57 69 94 61 43 353 20 8 25 42 37 14 25 28 20 15 19 18 9 2 357 354 352 353 351 352 349 344 342 342
111 143 133 119 93 58 42 32 59 63 36 54 80 72 65 41 67 82 60 13 13 14 29 18 41 22 18 17 26 20 13 8 8 358 356 352 354 350 346 342 342 339 337 340